Flag for Japan Weather past 2 weeks in Hiroshima, Japan

Now
39 °F

Passing clouds.


Feels Like: 35 °F
Forecast: 33 / 47 °F
Wind: 6 mph from Northwest

Location: Iwakuni Marine Corps Air Station

Current Time: Dec 26, 2014 at 12:01:53 AM

Latest Report: Dec 25, 2014 at 10:55 PM


Visibility: N/A

Pressure: 30.24 "Hg

Humidity: 67%

Dew point: 29 °F

Location of HiroshimaLocation

Historic Weather in Hiroshima — Graph

°F

Hiroshima temperature yesterday

Maximum temperature yesterday: 50 °F (at 1:55 PM)
Minimum temperature yesterday: 39 °F (at 6:55 AM)
Average temperature yesterday: 44 °F

Past Weeks' High & Low Weather Summary

 TemperatureHumidityPressure
High122 °F (Dec 12, 3:55 AM)96% (Dec 16, 5:55 AM)30.53 "Hg (Dec 16, 5:55 AM)
Low33 °F (Dec 17, 2:55 AM)5% (Dec 12, 3:55 AM)29.78 "Hg (Dec 16, 1:55 PM)
Average42 °F67%30.17 "Hg
* Reported Dec 10 10:55 PM — Dec 25 10:55 PM, Hiroshima, Weather by CustomWeather, © 2014

Note: Actual official high and low records may vary slightly from our data, if they occured in-between our weather recording intervals... More about our weather records

Advertising

Hiroshima weather history for previous 24 hours

 ConditionsComfort  
Time TempWeatherWind HumidityBarometerVisibility
10:55 PM
Dec 25
39 °FPassing clouds.6 mph67%30.24 "HgN/A
9:55 PM40 °FPassing clouds.3 mph68%30.22 "HgN/A
8:55 PM42 °FPassing clouds.7 mph60%30.20 "HgN/A
7:55 PM43 °FPassing clouds.7 mph56%30.19 "HgN/A
6:55 PM43 °FPassing clouds.3 mph53%30.19 "HgN/A
5:55 PM45 °FPassing clouds.7 mph49%30.18 "HgN/A
4:55 PM47 °FScattered clouds.9 mph46%30.16 "HgN/A
3:55 PM49 °FScattered clouds.12 mph43%30.13 "HgN/A
2:55 PM50 °FScattered clouds.7 mph41%30.12 "HgN/A
1:55 PM50 °FScattered clouds.8 mph43%30.11 "HgN/A
12:55 PM49 °FPassing clouds.13 mph43%30.11 "HgN/A
11:55 AM48 °FPassing clouds.9 mph44%30.14 "HgN/A
10:55 AM48 °FPassing clouds.8 mph46%30.16 "HgN/A
9:55 AM45 °FPassing clouds.9 mph51%30.17 "HgN/A
8:55 AM43 °FPassing clouds.7 mph65%30.17 "HgN/A
7:55 AM39 °FPassing clouds.No wind73%30.16 "HgN/A
6:55 AM39 °FPassing clouds.3 mph70%30.14 "HgN/A
5:55 AM41 °FPassing clouds.6 mph65%30.13 "HgN/A
4:55 AM43 °FPassing clouds.3 mph65%30.10 "HgN/A
3:55 AM43 °FPassing clouds.No wind71%30.09 "HgN/A
2:55 AM44 °FFog.5 mph76%30.09 "Hg5 mi
1:55 AM44 °FFog.8 mph79%30.08 "Hg5 mi
12:55 AM45 °FPassing clouds.8 mph80%30.06 "HgN/A
Weather by CustomWeather, © 2014

See weather overviewHow to use our weather pages